FENGYUN 1C DEB

Satellite information

Favourite Embed

Satellite Type and Status

DEBRISIN ORBIT

Key statistics

Satellite FENGYUN 1C DEB at a glance.

Uptime

9662

Days in orbit

Revolutions

≈ 13.8

Per day

Orbit

SSO

Sun Synchronous Orbit

Inclination

99.0

Latest

Satellite identification and parameters

Extended collection of information and parameters for FENGYUN 1C DEB.

Object identification

Identified? True

Debris? True

Object name: FENGYUN 1C DEB

International designator: 1999-025EWU

Object number (NORAD): 40688

Object ID (CCSDS): 40688

Country: PEOPLES REPUBLIC OF CHINA (PRC)

Current information (Y/N): Y

RCS size: SMALL

Orbital parameters

Period: 104.066 minutes

Inclination: 98.9664 deg

SMA: 7328.793 km

Apoapsis: 1055.435 km

Periapsis: 845.882 km

RAAN: 77.5068 deg

Eccentricy: 0.01429654

Argument of periapsis: 196.871 deg

Mean anomaly: 162.7665 deg

Mean motion: 13.83738573 rev/day

Mean motion (dot): 0.00000724 rev/day2

B* drag term: 0.0006397109 1/REarth

Two-line elements (TLE)

Creation date: Oct. 12, 2025, 10:10 a.m.

Reference frame: TEME

Reference center: EARTH

Epoch: Oct. 12, 2025, 3:19 a.m. UTC

TLE line 0: 0 FENGYUN 1C DEB

TLE line 1: 1 40688U 99025EWU 25285.13847106 .00000724 00000-0 63971-3 0 9995

TLE line 2: 2 40688 98.9664 77.5068 0142965 196.8710 162.7665 13.83738573290655

Live tracking on map

Real-time ground track for satellite FENGYUN 1C DEB.

In-orbit conjunctions

A list of the most updated potential collisions computed for object FENGYUN 1C DEB.

Target Orbit TCA Probability of collision Miss distance Type
COSMOS 926 LEO 2025-02-02 04:50:12 0.0001145112 325.0 (m) PAYLOAD

Associated space launch

Chinese polar orbiting meteorological satellite

FENGYUN 1C DEB was lifted into orbit during the mission ‘Long March 4B | Feng Yun 1C’, on board a Long March 4B space rocket.

The launch took place on May 10, 1999, 1:33 a.m. from Launch Complex 7.

For more information about the launch, click the button.

Launch to space Long March 4B | Feng Yun 1C
Long March 4B | Feng Yun 1C

Agency: N/A

Status: Launch Successful

Launch date: May 10, 1999, 1:33 a.m. UTC

Rocket: Long March 4B

Launch pad: Launch Complex 7

Location: Taiyuan Satellite Launch Center, People's Republic of China

...

Latest news about this satellite

There are no fresh news available about this satellite. Check back as we update our databases every day.


Newsletter sign-up

Weekly statistics, charts and insights to help you stay on top of the space industry.